RH
41 41 42 45 49 58 67 69 70 70 70 72 69 66 63 60 58 59 61 65 68 68 67 64 61 58 56 53 53 52 53 53 54 56 58 60 62 63 62 61 59 57 56 55 55 55 56 58 59 59 57 54 51 49 48 47 47 46 46 46 45 45 44 43 43 42 42 42 43
40 42 43 45 48 54 61 71 74 76 77 78 79 79 78 76 74 71 70 70 69 66 63 61 60 59 59 59 60 61 62 62 62 62 63 63 63 62 61 59 57 56 56 56 58 58 60 61 60 59 57 55 52 50 48 47 46 46 45 45 44 44 43 43 42 41 41 41 42
34 39 42 43 46 49 56 67 74 77 78 78 79 80 80 79 77 74 72 70 67 65 63 63 63 64 66 67 68 69 70 70 70 69 69 69 68 67 65 65 65 65 65 65 65 65 65 64 62 60 58 55 53 50 48 47 45 44 44 44 43 43 42 42 42 42 41 42 42
27 34 40 43 45 48 52 57 67 75 79 79 78 79 79 77 74 72 70 68 65 64 65 67 69 70 71 71 72 72 72 73 73 72 72 71 70 69 69 69 69 70 69 69 69 67 66 64 62 59 57 54 52 50 47 46 44 43 43 42 42 41 41 41 41 41 42 42 43
22 27 33 38 45 51 55 55 59 67 75 79 79 78 77 74 71 69 68 67 66 65 66 68 70 71 71 71 71 71 71 71 71 70 70 70 69 69 69 70 70 70 69 69 67 66 63 61 58 56 54 51 48 46 44 43 42 42 41 40 40 39 39 39 40 41 42 43 44
22 23 26 33 45 57 66 67 64 64 69 78 81 81 79 76 74 73 72 71 69 67 65 64 64 65 65 65 65 65 65 66 67 67 67 67 68 70 70 71 71 70 69 68 67 65 62 59 56 53 51 48 45 43 41 40 40 39 39 38 37 37 37 38 39 40 41 43 44
24 24 24 25 36 52 67 74 74 72 71 75 80 82 81 80 79 78 77 75 72 69 65 62 60 60 61 62 61 60 60 61 63 65 66 66 66 67 68 69 69 69 69 68 66 64 61 57 55 53 50 47 44 42 40 39 39 38 37 36 36 36 37 38 39 40 42 43 45
27 27 26 25 29 42 57 70 75 77 78 79 81 81 81 79 79 79 78 77 74 71 67 64 64 65 66 66 66 66 66 67 68 69 69 68 68 67 66 66 66 66 65 64 62 59 55 52 51 49 48 47 45 43 41 40 40 40 39 38 38 38 38 39 41 42 44 45 46
30 30 30 30 29 35 46 62 69 75 80 82 83 83 82 81 81 81 80 79 76 73 70 68 68 69 70 70 70 70 70 70 71 71 71 70 69 68 67 65 65 64 64 62 59 55 51 48 46 46 46 45 44 43 42 41 42 43 43 42 42 42 42 43 44 46 47 48 48
33 33 34 34 34 35 41 52 62 70 75 81 83 84 84 83 83 83 83 82 79 76 74 72 72 72 73 73 72 72 72 73 73 72 71 69 68 68 68 68 67 67 66 65 62 58 54 50 48 47 47 47 46 44 43 43 44 45 45 46 46 46 46 47 49 51 53 53 53
37 37 37 38 38 38 40 46 57 65 72 76 80 82 83 84 85 85 85 85 82 79 77 74 73 73 72 72 72 72 72 72 71 70 68 68 69 70 71 72 72 71 70 68 66 63 60 56 54 54 53 53 51 49 47 46 46 46 47 48 49 49 50 51 52 54 56 57 57
40 40 41 41 42 42 41 41 50 61 69 73 75 77 80 83 85 86 86 86 85 83 79 76 74 72 71 69 68 68 68 68 68 69 69 70 70 72 74 75 74 73 72 70 68 66 64 62 61 61 61 60 58 56 53 51 50 49 49 50 51 52 53 53 54 55 56 57 59
43 44 44 44 45 45 44 41 45 54 65 72 74 76 79 84 85 86 86 86 85 83 81 77 73 71 70 69 67 66 65 66 68 70 71 71 71 72 74 76 75 74 72 70 68 67 66 66 66 67 67 67 65 63 60 57 55 54 54 54 55 55 55 55 56 56 57 58 59
46 46 46 47 48 48 47 44 44 50 60 72 76 79 82 84 85 86 86 86 85 83 80 76 73 71 71 69 67 65 64 66 69 71 73 74 74 75 75 76 75 74 73 71 69 69 69 70 70 71 72 72 70 68 66 63 60 58 57 57 58 58 58 57 57 58 58 59 59
48 47 48 49 51 51 51 49 47 50 59 72 80 84 84 84 84 85 85 85 84 81 78 73 71 70 69 66 63 63 65 69 72 74 75 76 76 76 76 76 75 74 73 71 71 71 72 74 75 76 76 77 75 72 69 66 63 61 60 60 60 60 59 59 59 59 59 60 60
49 48 49 51 54 55 55 53 52 53 59 70 81 85 85 85 85 85 85 84 83 80 76 72 70 68 65 62 62 65 69 73 74 76 77 78 78 78 77 76 75 74 73 72 72 73 75 78 79 80 81 80 78 76 72 69 65 63 61 61 61 61 61 60 60 60 60 60 60
51 50 51 54 57 58 58 57 56 56 59 67 77 84 86 86 86 85 85 84 82 79 76 72 69 66 64 64 67 71 74 76 77 78 79 80 80 79 79 78 76 74 74 74 76 78 80 82 82 83 82 82 80 78 75 71 67 64 63 63 63 62 62 62 62 62 62 62 61
53 54 55 57 59 60 59 59 58 58 61 66 74 81 85 85 85 85 84 83 81 79 77 74 71 69 70 73 75 77 78 79 80 81 82 82 82 81 80 79 76 75 75 77 80 82 83 82 82 82 82 82 81 79 77 73 69 66 65 65 65 64 64 64 63 63 63 63 62
56 57 58 60 60 60 60 59 59 60 63 67 74 79 84 85 85 85 85 84 83 82 80 79 77 77 78 80 80 81 81 82 83 84 84 83 83 82 81 80 78 77 78 80 82 82 82 81 81 81 81 80 81 80 78 74 71 68 66 66 66 66 65 65 65 64 64 64 64
58 59 60 60 61 60 60 59 60 61 64 69 75 80 83 85 85 85 85 85 85 84 84 83 83 82 83 83 83 84 84 84 85 85 85 83 82 82 81 80 79 78 79 81 82 82 81 81 81 81 81 81 82 81 79 76 72 70 68 68 67 67 67 66 66 66 66 66 65
57 58 59 59 60 60 60 59 60 62 66 71 77 81 83 85 85 85 85 85 85 85 85 85 85 84 84 85 85 86 86 86 86 86 84 83 82 81 81 80 80 80 80 81 82 81 81 81 81 81 81 82 82 81 79 76 74 72 70 70 69 69 68 68 68 69 69 69 68
57 58 59 59 58 59 59 59 61 63 67 73 78 81 83 85 85 85 85 86 86 86 86 86 86 86 85 85 85 85 86 86 86 85 84 82 83 82 81 81 80 80 81 82 82 82 82 82 82 82 82 83 82 81 79 78 76 74 73 72 71 70 70 69 70 70 71 71 71
65 64 63 61 59 58 58 59 62 65 70 74 78 81 83 85 85 85 85 85 85 85 86 86 86 86 85 85 84 83 84 85 85 84 83 82 83 82 81 79 80 81 81 82 82 83 83 83 83 83 83 84 83 82 81 80 78 76 75 73 73 72 71 71 71 72 72 73 73
77 75 73 68 62 58 58 59 63 67 72 76 79 82 84 85 85 85 85 84 84 85 85 85 86 85 85 85 84 84 84 85 84 83 82 83 83 81 80 78 79 80 82 82 83 83 84 84 84 84 84 84 85 84 83 82 80 78 77 75 74 73 73 73 73 73 73 74 75
82 81 80 77 68 61 58 59 64 69 74 79 81 83 84 85 85 85 84 84 84 84 84 85 86 86 86 87 87 87 86 85 83 83 83 83 82 80 79 78 79 80 82 83 83 84 84 84 84 84 85 86 86 85 84 83 81 79 77 76 75 75 74 74 74 74 74 74 75
83 83 82 81 75 67 60 58 64 70 76 82 83 84 84 85 85 85 85 85 85 85 85 86 86 86 87 87 87 87 86 84 83 83 84 83 81 79 78 78 79 81 82 83 84 83 84 83 83 84 85 85 85 85 84 82 81 79 78 77 76 76 75 74 74 74 73 74 74
83 83 83 82 80 73 65 59 62 68 76 83 84 85 85 85 85 85 85 85 85 85 86 86 86 86 86 86 86 85 85 83 83 82 82 81 79 78 77 78 80 81 82 83 83 83 83 83 83 83 84 84 84 84 83 82 80 79 78 77 76 76 75 73 72 72 71 72 72
83 83 82 82 81 77 71 62 61 65 72 80 84 85 85 85 85 84 84 84 84 84 84 85 85 86 86 85 85 84 83 82 81 81 80 80 78 78 78 79 80 81 82 82 83 83 82 82 83 83 84 84 84 84 83 82 81 80 79 78 77 76 75 73 72 71 70 70 70
83 83 83 82 82 80 76 68 63 64 69 77 82 84 85 85 85 84 84 83 82 82 82 83 84 85 85 84 84 84 84 83 82 80 79 79 79 79 79 80 81 81 81 81 82 82 82 82 83 84 84 84 84 84 83 83 82 81 79 78 78 77 75 74 73 71 70 69 68
83 83 83 83 82 81 79 75 69 67 69 74 81 84 85 85 85 85 84 83 83 84 84 84 85 85 85 84 85 84 84 83 81 80 80 79 80 80 80 81 80 80 80 80 80 81 82 82 83 84 84 84 84 83 83 82 82 80 79 78 76 75 74 73 72 71 70 68 67
83 83 83 83 83 82 81 80 76 73 72 74 78 82 84 84 84 85 85 83 84 84 85 85 85 84 84 83 84 83 83 82 81 80 80 81 81 82 81 81 80 79 78 79 80 80 81 82 82 82 83 83 82 82 81 80 79 78 77 75 74 73 72 71 69 68 67 66 65
84 84 83 83 83 83 82 82 81 79 78 77 78 80 81 82 83 84 84 83 83 84 85 85 85 84 83 82 83 83 82 82 81 81 81 82 82 82 81 81 79 78 78 79 80 80 81 81 81 81 80 79 78 76 74 73 72 71 71 70 69 68 68 67 66 65 64 63 62
84 84 84 84 83 83 83 84 84 83 82 82 82 82 82 82 83 84 84 83 83 84 85 85 84 84 84 84 83 83 83 83 83 83 82 82 82 81 80 80 79 79 79 79 80 80 80 80 80 79 77 74 71 68 65 63 62 61 61 61 61 61 61 60 60 60 59 59 59
84 84 84 84 83 83 83 84 84 84 83 83 83 83 84 84 84 85 85 84 83 84 84 85 85 84 84 84 84 84 85 85 84 83 82 81 80 79 79 78 78 78 78 79 79 79 79 79 79 78 75 72 67 63 59 56 55 54 54 54 54 54 53 53 53 54 54 54 54
84 84 84 84 83 83 83 84 84 84 83 84 83 83 83 83 85 85 85 85 84 84 84 85 85 85 85 85 85 84 84 83 82 81 80 79 78 78 77 76 76 76 76 76 77 77 77 77 78 77 76 73 69 64 59 55 53 52 51 51 51 50 49 48 48 48 48 49 49
84 84 84 84 83 82 82 83 83 83 84 85 84 84 83 83 85 85 85 85 85 85 85 85 85 85 85 84 84 83 82 81 80 80 79 78 77 76 75 75 74 74 74 73 74 74 75 76 76 76 75 74 71 66 61 56 53 52 51 51 51 50 48 47 45 45 45 44 44
84 84 84 84 83 83 82 82 82 83 84 84 85 85 85 85 85 85 85 85 85 85 85 85 84 84 83 83 82 81 80 79 78 78 78 77 75 75 74 74 74 73 73 72 71 71 72 74 74 73 73 72 69 66 61 56 54 53 52 51 51 50 49 47 46 44 42 40 40
84 84 83 83 83 83 83 82 81 82 83 84 84 85 85 85 85 85 85 85 85 84 84 84 83 82 81 80 79 78 78 77 76 76 75 75 74 73 73 73 73 73 71 70 69 68 68 71 70 70 69 68 66 63 60 56 54 53 52 50 50 49 48 46 45 43 40 36 34
84 83 83 84 84 84 83 82 81 81 81 83 84 84 85 85 85 85 85 85 84 84 83 83 82 81 80 79 79 78 77 76 75 74 73 73 72 72 71 71 72 71 70 68 66 64 64 66 66 66 65 64 63 61 59 56 54 52 50 48 46 44 43 42 40 39 37 33 30
83 83 84 84 84 84 84 84 83 81 81 82 83 84 84 85 84 85 84 84 84 84 83 83 82 82 81 80 80 80 79 77 75 73 72 72 72 71 70 69 69 69 67 64 61 59 59 60 62 62 62 62 60 58 56 54 52 48 45 42 40 38 36 35 34 33 31 30 29
81 82 83 84 84 84 84 84 83 82 81 82 83 84 84 84 84 84 84 84 84 83 83 83 83 82 82 81 81 81 80 79 75 73 72 72 72 70 69 67 66 65 64 60 56 53 52 52 57 59 60 59 57 55 52 51 47 43 39 36 34 33 31 30 29 28 27 27 28